Location: Newark
(48.6676°N, 6.1917°E)
Time: 11:03:16
(UTC+00:00)

N. Korean satellite - Pass Details

Date: 09 December 2019
Orbit: 454 x 508 km, 97.2° (Epoch: 17 January)

Event Time Altitude Azimuth Distance (km) Brightness Sun altitude
Rises 05:24:52 0° 14° (NNE) 2,563 10.2 -17.3°
Reaches altitude 10° 05:26:59 10° 18° (NNE) 1,668 9.3 -17.0°
Maximum altitude 05:30:32 67° 101° (E) 518 6.9 -16.4°
Drops below altitude 10° 05:34:01 10° 185° (S) 1,623 9.4 -15.9°
Sets 05:36:02 0° 188° (S) 2,486 10.3 -15.5°
